Weather History for West Palm Beach, FL

Change the Weather History Date:

Tuesday, March 12, 2013

  Actual Average Record
Temperature  
Mean Temperature 75 °F 70 °F  
Max Temperature 80 °F 78 °F 90 °F (1948)
Min Temperature 69 °F 62 °F 34 °F (1924)
Degree Days  
Heating Degree Days 0 1  
Month to date heating degree days 49 12  
Since 1 July heating degree days 132 217  
Cooling Degree Days 10 6  
Month to date cooling degree days 24 70  
Year to date cooling degree days 405 305  
Growing Degree Days 25 (Base 50)    
Moisture  
Dew Point 64 °F    
Average Humidity 69    
Maximum Humidity 79    
Minimum Humidity 58    
Precipitation  
Precipitation T in 0.15 in 4.99 in (2010)
Month to date precipitation T 1.67  
Year to date precipitation 3.19 7.62  
Snow  
Snow 0.00 in - - ()
Month to date snowfall 0.0  
Since 1 July snowfall 0.0  
Snow Depth 0.00 in    
Sea Level Pressure  
Sea Level Pressure 29.96 in    
Wind  
Wind Speed 12 mph (South)    
Max Wind Speed 16 mph    
Max Gust Speed 23 mph    
Visibility 10 miles    
Events Rain    
T = Trace of Precipitation, MM = Missing Value Source: NWS Daily Summary

Daily Weather History Graph

Daily Weather History Graph

Search for Another Location

Airport:

Trip Planner

Search our weather history database for the weather conditions in past years. The results will help you decide how hot, cold, wet, or windy it might be!

Date:

Astronomy

Mar. 12, 2013 Rise Set
Actual Time 7:32 AM EDT 7:27 PM EDT
Civil Twilight 7:09 AM EDT 7:50 PM EDT
Nautical Twilight 6:42 AM EDT 8:17 PM EDT
Astronomical Twilight 6:15 AM EDT 8:44 PM EDT
Moon 7:46 AM EDT (3/12) 8:29 PM EDT (3/12)
Length of Visible Light 12h 41m
Length of Day
11h 55m
New Moon, 1% of the Moon is Illuminated
Mar 12
New Moon
Mar 19
First Quarter
Mar 27
Full
Apr 3
Last Quarter
Apr 10
New

Hourly Weather History & Observations

Time (EDT) Temp. Dew Point Humidity Pressure Visibility Wind Dir Wind Speed Gust Speed Precip Events Conditions
12:53 AM 71.1 °F 59.0 °F 66% 29.99 in 10.0 mi SSE 11.5 mph - N/A   Partly Cloudy
1:53 AM 71.1 °F 60.1 °F 68% 29.99 in 10.0 mi SE 11.5 mph - N/A   Mostly Cloudy
2:53 AM 71.1 °F 61.0 °F 70% 29.96 in 10.0 mi SSE 16.1 mph - N/A   Scattered Clouds
3:53 AM 71.1 °F 62.1 °F 73% 29.94 in 10.0 mi SSE 13.8 mph 23.0 mph N/A   Partly Cloudy
4:53 AM 71.1 °F 62.1 °F 73% 29.92 in 10.0 mi SSE 13.8 mph 21.9 mph N/A   Scattered Clouds
5:53 AM 71.1 °F 63.0 °F 75% 29.92 in 10.0 mi SSE 12.7 mph - N/A   Scattered Clouds
6:53 AM 71.1 °F 62.1 °F 73% 29.95 in 10.0 mi South 8.1 mph - N/A   Scattered Clouds
7:53 AM 71.1 °F 63.0 °F 75% 29.94 in 10.0 mi SSE 9.2 mph - N/A   Mostly Cloudy
8:53 AM 73.0 °F 63.0 °F 71% 29.96 in 10.0 mi South 12.7 mph - N/A   Mostly Cloudy
9:53 AM 75.0 °F 64.0 °F 69% 29.99 in 10.0 mi South 13.8 mph 21.9 mph N/A   Mostly Cloudy
10:53 AM 77.0 °F 64.9 °F 66% 29.99 in 10.0 mi South 16.1 mph - N/A   Mostly Cloudy
11:38 AM 77.0 °F 66.2 °F 69% 29.99 in 10.0 mi South 13.8 mph 20.7 mph N/A   Mostly Cloudy
11:53 AM 77.0 °F 66.0 °F 69% 30.00 in 10.0 mi South 12.7 mph 19.6 mph N/A   Mostly Cloudy
12:53 PM 79.0 °F 66.9 °F 66% 29.98 in 10.0 mi SSE 16.1 mph 21.9 mph N/A   Mostly Cloudy
1:53 PM 79.0 °F 68.0 °F 69% 29.95 in 10.0 mi SSE 12.7 mph 21.9 mph N/A   Mostly Cloudy
2:53 PM 75.9 °F 69.1 °F 79% 29.94 in 10.0 mi South 9.2 mph - 0.00 in Rain Light Rain
3:36 PM 75.2 °F 68.0 °F 78% 29.93 in 10.0 mi South 8.1 mph - 0.00 in   Overcast
3:53 PM 77.0 °F 68.0 °F 74% 29.92 in 10.0 mi South 11.5 mph - 0.00 in   Overcast
4:53 PM 78.1 °F 63.0 °F 60% 29.92 in 10.0 mi SSW 12.7 mph - N/A   Overcast
5:53 PM 79.0 °F 66.0 °F 64% 29.92 in 10.0 mi SW 15.0 mph 20.7 mph N/A   Mostly Cloudy
6:53 PM 77.0 °F 64.9 °F 66% 29.93 in 10.0 mi SSW 12.7 mph - N/A   Mostly Cloudy
7:53 PM 75.9 °F 64.9 °F 69% 29.94 in 10.0 mi SW 9.2 mph - N/A   Mostly Cloudy
8:53 PM 75.0 °F 63.0 °F 66% 29.96 in 10.0 mi SW 10.4 mph - N/A   Scattered Clouds
9:53 PM 73.9 °F 63.0 °F 68% 29.98 in 10.0 mi WSW 8.1 mph - N/A   Mostly Cloudy
10:53 PM 71.1 °F 64.0 °F 78% 29.99 in 10.0 mi West 4.6 mph - N/A   Mostly Cloudy
11:53 PM 71.1 °F 64.0 °F 78% 29.99 in 10.0 mi West 6.9 mph - N/A   Overcast